Weather Roundup
Issued by NWS

Home | Current Version | Previous Version | Graphics & Text | Print | Product List | Glossary Off
Versions: 1 2 3 4 5 6 7 8 9 10 11 12 13 14 15 16 17 18 19 20 21 22 23 24 25 26 27 28 29 30 31 32 33 34 35 36 37 38 39 40 41 42 43 44 45 46 47 48 49 50

978
NZUS93 KARX 231259
HRRWXR

CURRENT HOURLY OBSERVATIONS ACROSS
MUCH OF THE UPPER MISSISSIPPI VALLEY
NATIONAL WEATHER SERVICE LA CROSSE WI
800 AM CDT MON APR 23 2018


...SOUTHEAST MINNESOTA...


CITY           SKY/WX    TMP DP  RH WIND       PRES   REMARKS
ROCHESTER      FAIR      41  33  73 S5        30.27R
ROCHESTER/MAYO FAIR      43  28  55 CALM      30.27S
WINONA         FAIR      39  34  81 CALM      30.27S
AUSTIN         FAIR      41  34  75 SE3       30.25S
ALBERT LEA     FAIR      39  30  70 CALM      30.25S
DODGE CENTER   FAIR      43  34  70 S3        30.26S
PRESTON        FAIR      41  28  58 CALM      30.28R
OWATONNA       FAIR      45  36  70 CALM      30.25S
FARIBAULT      NOT AVBL
$$

...ELSEWHERE IN MINNESOTA...


CITY           SKY/WX    TMP DP  RH WIND       PRES   REMARKS
MINNEAPOLIS    FAIR      46  37  71 CALM      30.26R
INTNL FALLS    FAIR      49  36  61 SW6       30.14S
DULUTH         FAIR      50  40  68 W8        30.22S
RED WING       FAIR      43  34  70 SE3       30.27S
REDWOOD FALLS  SUNNY     39  39 100 CALM      30.24R
MANKATO        FAIR      42  34  73 SE8       30.25S
WORTHINGTON    SUNNY     41  37  86 S3        30.24R
FAIRMONT       SUNNY     39  35  86 S3        30.25R
$$

...SOUTHWEST WISCONSIN...


CITY           SKY/WX    TMP DP  RH WIND       PRES   REMARKS
LA CROSSE      FAIR      43  32  65 CALM      30.28S
PRAIRIE DU CHI FAIR      41  33  72 CALM      30.27S
BOSCOBEL       FAIR      43  33  68 VRB3      30.28S
LONE ROCK      NOT AVBL
PLATTEVILLE    FAIR      44  29  56 NE7       30.25S
FORT MC COY    FAIR      34  30  85 CALM      30.30S
MAUSTON-NEW LI FAIR      35  32  88 NW3       30.28S
VIROQUA        FAIR      47  31  51 E8        30.27S
WIS DELLS      FAIR      35  31  88 CALM      30.28S
$$

...ELSEWHERE IN WISCONSIN...


CITY           SKY/WX    TMP DP  RH WIND       PRES   REMARKS
MILWAUKEE      PTSUNNY   45  33  63 N7        30.27F
MADISON        PTSUNNY   40  30  67 N3        30.27S
GREEN BAY      FAIR      40  29  64 N3        30.31R
EAU CLAIRE     NOT AVBL
BLACK RVR FLS  FAIR      35  30  80 CALM      30.29S
MEDFORD        FAIR      38  29  71 SE3       30.28S
WAUSAU         FAIR      39  30  70 CALM      30.28S
WIS RAPIDS     FAIR      43  28  55 CALM      30.31R
MARSHFIELD     FAIR      42  28  57 E3        30.28S
RICE LAKE      FAIR      35  31  88 CALM      30.29S
$$

...NORTHEAST IOWA...


CITY           SKY/WX    TMP DP  RH WIND       PRES   REMARKS
WATERLOO       FAIR      46  34  62 E7        30.24R
DUBUQUE        FAIR      44  27  51 NE12      30.24S
DECORAH        FAIR      41  36  81 CALM      30.25S
MASON CITY     SUNNY     41  33  73 CALM      30.26S
CHARLES CITY   PTSUNNY   43  32  65 NE7       30.26R
OELWEIN        FAIR      45  32  61 E9        30.25R
$$

...ELSEWHERE IN IOWA...


CITY           SKY/WX    TMP DP  RH WIND       PRES   REMARKS
DES MOINES     CLOUDY    50  30  46 NE8       30.21R
IOWA CITY      FAIR      52  28  39 NE10      30.22S
FORT DODGE     SUNNY     45  39  79 NE5       30.24R
MARSHALLTOWN   CLOUDY    44  35  70 NE3       30.22R
CEDAR RAPIDS   FAIR      50  28  42 E12       30.21S
$$

...NORTHERN ILLINOIS...


CITY           SKY/WX    TMP DP  RH WIND       PRES   REMARKS
CHICAGO-OHARE  CLOUDY    47  28  47 NE13      30.21S
CHICAGO-MIDWAY CLOUDY    50  29  44 NE9       30.21S
MOLINE         FAIR      50  28  42 E9        30.19S
ROCKFORD       CLOUDY    48  24  39 NE10      30.25S
PEORIA         FAIR      49  27  42 NE12      30.14S
$$

NOTE: "FAIR" INDICATES FEW OR NO CLOUDS BELOW 12,000 FEET WITH NO
SIGNIFICANT WEATHER AND/OR OBSTRUCTIONS TO VISIBILITY. WIND
SPEEDS ARE IN MILES-PER-HOUR.




USA.gov is the U.S. government's official web portal to all federal, state and local government web resources and services.